CW4745 Weather Reports


Display with metric or nautical units.
time (UTC)temp
F
wind
direction
speed
MPH
gust
MPH
rain 1hr
in
rain 24hr
in
rain mn
in
humidity
%
barometer
mb
20180821095805 74 126 4.0 9.0 0.00 0.00 0.00 69 1020.1
20180821094805 74 191 2.0 10.0 0.00 0.00 0.00 67 1020.3
20180821093817 76 164 5.0 11.0 0.00 0.00 0.00 67 1020.3
20180821092804 76 104 6.0 10.0 0.00 0.00 0.00 67 1020.2
20180821091804 75 152 5.0 10.0 0.00 0.00 0.00 68 1020.3
20180821090804 73 170 3.0 10.0 0.00 0.00 0.00 70 1020.3
20180821085802 74 149 5.0 10.0 0.00 0.00 0.00 68 1020.3
20180821084804 75 153 4.0 6.0 0.00 0.00 0.00 69 1020.3
20180821083803 74 183 3.0 9.0 0.00 0.00 0.00 71 1020.3
20180821082803 73 178 3.0 7.0 0.00 0.00 0.00 73 1020.3
20180821081803 73 164 3.0 7.0 0.00 0.00 0.00 72 1020.2
20180821080808 73 152 2.0 6.0 0.00 0.00 0.00 73 1020.4
20180821075802 72 184 3.0 9.0 0.00 0.00 0.00 74 1020.3
20180821074804 71 150 4.0 9.0 0.00 0.00 0.00 75 1020.4
20180821073801 70 173 5.0 6.0 0.00 0.00 0.00 76 1020.4
20180821072802 69 133 3.0 5.0 0.00 0.00 0.00 79 1020.3
20180821071804 68 116 3.0 5.0 0.00 0.00 0.00 81 1020.3
20180821070802 67 112 2.0 4.0 0.00 0.00 0.00 84 1020.3
20180821065801 66 116 3.0 5.0 0.00 0.00 0.00 85 1020.3
20180821064801 65 113 2.0 7.0 0.00 0.00 0.00 86 1020.3
20180821063800 65 113 3.0 5.0 0.00 0.00 0.00 87 1020.3
20180821062800 64 126 2.0 5.0 0.00 0.00 0.00 87 1020.3
20180821061800 64 126 2.0 4.0 0.00 0.00 0.00 87 1020.3
20180821060759 64 126 2.0 4.0 0.00 0.00 0.00 88 1020.3
20180821055759 63 126 0.0 2.0 0.00 0.00 0.00 88 1020.3
20180821054759 63 126 2.0 3.0 0.00 0.00 0.00 88 1020.3
20180821053759 63 126 2.0 3.0 0.00 0.00 0.00 88 1020.2
20180821052759 63 126 1.0 3.0 0.00 0.00 0.00 88 1020.1
20180821051758 63 126 1.0 3.0 0.00 0.00 0.00 87 1020.0
20180821050758 62 126 0.0 1.0 0.00 0.00 0.00 87 1020.1
20180821045759 62 126 0.0 1.0 0.00 0.00 0.00 87 1019.9
20180821044757 62 126 1.0 2.0 0.00 0.00 0.00 87 1019.9
20180821043757 63 126 0.0 1.0 0.00 0.00 0.00 86 1019.9
20180821042757 63 126 1.0 2.0 0.00 0.00 0.00 86 1020.0
20180821041756 63 126 1.0 3.0 0.00 0.00 0.00 86 1019.8
20180821040752 63 126 1.0 3.0 0.00 0.00 0.00 86 1019.7
20180821035751 63 126 2.0 3.0 0.00 0.00 0.00 86 1019.6
20180821034751 63 126 1.0 3.0 0.00 0.00 0.00 86 1019.7
20180821033750 63 126 1.0 3.0 0.00 0.00 0.00 86 1019.7
20180821032750 63 126 2.0 4.0 0.00 0.00 0.00 86 1019.7
20180821031748 63 235 0.0 1.0 0.00 0.00 0.00 85 1019.9
20180821030747 63 235 1.0 2.0 0.00 0.00 0.00 85 1020.1
20180821025745 63 235 2.0 3.0 0.00 0.00 0.00 85 1020.2
20180821024746 64 235 1.0 2.0 0.00 0.00 0.00 85 1020.3
20180821023746 64 235 0.0 2.0 0.00 0.00 0.00 85 1020.3
20180821022745 64 235 0.0 2.0 0.00 0.00 0.00 84 1020.3
20180821021744 64 235 1.0 2.0 0.00 0.00 0.00 84 1020.3
20180821020745 64 235 0.0 1.0 0.00 0.00 0.00 84 1020.3
20180821015743 64 235 0.0 1.0 0.00 0.00 0.00 84 1020.3
20180821014746 64 235 0.0 1.0 0.00 0.00 0.00 85 1020.3
20180821013742 64 235 1.0 2.0 0.00 0.00 0.00 85 1020.1
20180821012741 64 235 1.0 1.0 0.00 0.00 0.00 85 1020.2
20180821011740 64 235 0.0 2.0 0.00 0.00 0.00 85 1020.2
20180821010740 64 235 0.0 1.0 0.00 0.00 0.00 85 1020.2
20180821005741 64 235 0.0 3.0 0.00 0.00 0.00 85 1020.0
20180821004741 64 235 1.0 2.0 0.00 0.00 0.00 84 1020.2
20180821003740 64 235 2.0 3.0 0.00 0.00 0.00 84 1020.2
20180821002739 64 235 1.0 3.0 0.00 0.00 0.00 84 1020.3
20180821001740 64 235 1.0 2.0 0.00 0.00 0.00 84 1020.3
20180821000739 64 235 1.0 3.0 0.00 0.00 0.00 84 1020.3
20180820235737 64 235 1.0 2.0 0.00 0.00 0.00 84 1020.2
20180820234737 64 235 1.0 2.0 0.00 0.00 0.00 84 1020.3
20180820233737 64 235 0.0 3.0 0.00 0.00 0.00 84 1020.4
20180820232737 64 235 1.0 2.0 0.00 0.00 0.00 83 1020.3
20180820231733 64 235 1.0 3.0 0.00 0.00 0.00 83 1020.5
20180820230733 64 235 2.0 3.0 0.00 0.00 0.00 83 1020.3
20180820225732 64 235 0.0 1.0 0.00 0.00 0.00 83 1020.2
20180820224732 64 235 0.0 3.0 0.00 0.00 0.00 83 1020.2
20180820223732 64 235 2.0 3.0 0.00 0.00 0.00 83 1020.2
20180820222731 64 235 0.0 4.0 0.00 0.00 0.00 83 1020.2
20180820221731 64 269 2.0 3.0 0.00 0.00 0.00 83 1020.2
20180820220731 65 277 1.0 2.0 0.00 0.00 0.00 83 1020.2
20180820215731 65 277 1.0 2.0 0.00 0.00 0.00 83 1020.3
20180820214731 65 277 1.0 2.0 0.00 0.00 0.00 83 1020.2
20180820213729 65 280 0.0 2.0 0.00 0.00 0.00 82 1020.2
20180820212730 65 280 1.0 2.0 0.00 0.00 0.00 82 1020.2
20180820211731 65 280 1.0 2.0 0.00 0.00 0.00 81 1020.2
20180820210729 65 281 0.0 1.0 0.00 0.00 0.00 81 1020.2
20180820205728 65 281 0.0 0.0 0.00 0.00 0.00 81 1020.2
20180820204728 65 281 0.0 2.0 0.00 0.00 0.00 81 1020.2
20180820203728 65 281 0.0 2.0 0.00 0.00 0.00 81 1020.3
20180820202725 65 281 1.0 2.0 0.00 0.00 0.00 81 1020.3
20180820201725 66 281 1.0 1.0 0.00 0.00 0.00 80 1020.3
20180820200725 66 280 0.0 1.0 0.00 0.00 0.00 80 1020.3
20180820195725 66 281 0.0 2.0 0.00 0.00 0.00 80 1020.3
20180820194721 66 281 1.0 2.0 0.00 0.00 0.00 79 1020.2
20180820193722 66 281 0.0 2.0 0.00 0.00 0.00 79 1020.3
20180820192722 66 281 1.0 3.0 0.00 0.00 0.00 79 1020.4
20180820191721 66 281 1.0 3.0 0.00 0.01 0.00 79 1020.4
20180820190720 66 281 1.0 3.0 0.00 0.01 0.00 78 1020.3
20180820185718 66 281 1.0 2.0 0.00 0.01 0.00 78 1020.1
20180820184715 66 280 1.0 4.0 0.00 0.01 0.00 77 1020.1
20180820183716 66 278 2.0 4.0 0.00 0.01 0.00 77 1020.0
20180820182717 66 300 2.0 4.0 0.00 0.01 0.00 77 1020.0
20180820181717 66 285 1.0 5.0 0.00 0.01 0.00 76 1019.9
20180820180715 67 307 3.0 6.0 0.00 0.01 0.00 76 1020.0
20180820175714 67 321 2.0 5.0 0.00 0.01 0.00 76 1019.9
20180820174713 67 291 2.0 6.0 0.00 0.01 0.00 76 1020.0
20180820173713 67 318 3.0 9.0 0.00 0.01 0.00 75 1020.0
20180820172715 67 247 4.0 7.0 0.00 0.01 0.00 75 1020.0
20180820171712 67 280 5.0 9.0 0.00 0.01 0.00 75 1020.0
20180820170711 68 290 3.0 6.0 0.00 0.01 0.00 75 1019.9
20180820165724 68 293 2.0 9.0 0.00 0.01 0.00 74 1019.8
20180820164712 68 293 2.0 7.0 0.00 0.01 0.00 74 1019.9
20180820163712 68 280 5.0 7.0 0.00 0.01 0.00 74 1019.8
20180820162711 68 285 3.0 7.0 0.00 0.01 0.00 75 1019.9
20180820161710 68 287 3.0 9.0 0.00 0.01 0.00 74 1020.0
20180820160711 69 261 6.0 10.0 0.00 0.01 0.00 73 1019.9
20180820155711 69 256 4.0 10.0 0.00 0.01 0.00 73 1019.9
20180820154710 70 277 7.0 11.0 0.00 0.01 0.00 71 1020.0
20180820153710 70 300 4.0 12.0 0.00 0.01 0.00 71 1019.9
20180820152710 71 283 6.0 10.0 0.00 0.01 0.00 70 1019.8
20180820151709 71 304 4.0 10.0 0.00 0.01 0.00 71 1019.8
20180820150709 71 325 4.0 7.0 0.00 0.01 0.00 71 1019.8
20180820145709 71 247 5.0 9.0 0.00 0.01 0.00 71 1019.7
20180820144711 71 321 3.0 9.0 0.00 0.01 0.00 71 1019.8
20180820143709 71 297 4.0 9.0 0.00 0.01 0.00 70 1019.8
20180820142709 71 309 2.0 6.0 0.00 0.01 0.00 71 1019.8
20180820141712 71 301 2.0 10.0 0.00 0.01 0.00 71 1019.8
20180820140706 71 314 5.0 10.0 0.00 0.01 0.00 71 1019.8
20180820135707 72 328 4.0 7.0 0.00 0.01 0.00 69 1019.9
20180820134714 72 300 4.0 11.0 0.00 0.01 0.00 70 1019.8
20180820133706 73 308 4.0 11.0 0.00 0.01 0.00 68 1019.8
20180820132704 73 355 4.0 10.0 0.00 0.01 0.00 69 1019.8
20180820131704 72 271 4.0 10.0 0.00 0.01 0.00 70 1019.8
20180820130705 73 325 3.0 10.0 0.00 0.01 0.00 69 1019.8
20180820125703 72 322 3.0 10.0 0.00 0.01 0.00 71 1019.8
20180820124703 72 321 5.0 10.0 0.00 0.01 0.00 71 1019.8
20180820123702 72 308 6.0 11.0 0.00 0.01 0.00 71 1019.8
20180820122706 70 333 4.0 9.0 0.00 0.01 0.00 72 1019.7
20180820121702 70 293 4.0 11.0 0.00 0.01 0.00 73 1019.7
20180820120703 70 342 5.0 11.0 0.00 0.01 0.00 74 1019.6
20180820115702 70 329 5.0 11.0 0.00 0.01 0.00 73 1019.8
20180820114700 70 318 7.0 13.0 0.00 0.01 0.00 73 1019.8
20180820113700 70 301 7.0 12.0 0.00 0.01 0.00 74 1019.7
20180820112659 69 304 6.0 11.0 0.00 0.01 0.00 75 1019.7
20180820111657 69 270 6.0 13.0 0.00 0.01 0.00 76 1019.7
20180820110657 69 288 5.0 11.0 0.00 0.01 0.00 76 1019.5
20180820105657 69 278 4.0 10.0 0.00 0.01 0.00 77 1019.4
20180820104657 69 343 4.0 12.0 0.00 0.01 0.00 77 1019.5
20180820103656 69 311 4.0 11.0 0.00 0.01 0.00 76 1019.4
20180820102657 69 295 6.0 12.0 0.00 0.01 0.00 77 1019.4
20180820101656 68 331 4.0 11.0 0.00 0.01 0.00 78 1019.5